Home > Time Zones > World Clock > Weather > U.S.A. > Waco > Past weeks

Flag for U.S.A. Weather past 2 weeks in Waco, Texas, U.S.A.

Now
53 °F

Clear.


Feels Like: 53 °F
Forecast: 39 / 54 °F
Wind: 3 mph from Northeast

Location: Waco Regional Airport

Current Time: Dec 22, 2014 at 11:27:00 PM

Latest Report: Dec 22, 2014 at 10:51 PM


Visibility: 10 mi

Pressure: 29.66 "Hg

Humidity: 72%

Dew point: 44 °F

Location of WacoLocation

Historic Weather in Waco — Graph

°F

Waco temperature yesterday

Maximum temperature yesterday: 55 °F (at 11:51 PM)
Minimum temperature yesterday: 47 °F (at 3:51 AM)
Average temperature yesterday: 51 °F

Past Weeks' High & Low Weather Summary

 TemperatureHumidityPressure
High72 °F (Dec 22, 12:51 PM)100% (Dec 8, 4:51 AM)30.39 "Hg (Dec 8, 4:51 AM)
Low35 °F (Dec 9, 3:51 AM)28% (Dec 15, 3:51 PM)29.56 "Hg (Dec 22, 2:51 PM)
Average53 °F81%30.13 "Hg
* Reported Dec 7 9:51 PM — Dec 22 9:51 PM, Waco, Weather by CustomWeather, © 2014

Note: Actual official high and low records may vary slightly from our data, if they occured in-between our weather recording intervals... More about our weather records

Advertising

Waco weather history for previous 24 hours

 ConditionsComfort  
Time TempWeatherWind HumidityBarometerVisibility
9:51 PM
Dec 22
54 °FPassing clouds.5 mph69%29.65 "Hg10 mi
8:51 PM56 °FClear.9 mph62%29.69 "Hg10 mi
7:51 PM58 °FClear.9 mph60%29.68 "Hg10 mi
6:51 PM58 °FClear.8 mph58%29.65 "Hg10 mi
5:51 PM61 °FClear.9 mph52%29.64 "Hg10 mi
4:51 PM63 °FSunny.14 mph45%29.59 "Hg10 mi
3:51 PM68 °FSunny.14 mph33%29.58 "Hg10 mi
2:51 PM70 °FSunny.14 mph32%29.56 "Hg10 mi
1:51 PM71 °FSunny.12 mph31%29.56 "Hg10 mi
12:51 PM72 °FSunny.18 mph34%29.58 "Hg10 mi
11:51 AM69 °FSunny.16 mph42%29.61 "Hg10 mi
10:51 AM64 °FSunny.14 mph58%29.63 "Hg10 mi
9:51 AM61 °FSunny.14 mph72%29.65 "Hg10 mi
8:51 AM58 °FSunny.12 mph81%29.65 "Hg10 mi
7:51 AM55 °FSunny.9 mph87%29.64 "Hg10 mi
6:51 AM56 °FClear.17 mph87%29.63 "Hg10 mi
5:51 AM55 °FClear.16 mph90%29.63 "Hg10 mi
4:51 AM55 °FPassing clouds.12 mph87%29.64 "Hg10 mi
3:51 AM55 °FOvercast.12 mph87%29.67 "Hg10 mi
2:51 AM56 °FOvercast.12 mph81%29.69 "Hg10 mi
1:51 AM56 °FOvercast.15 mph81%29.71 "Hg10 mi
12:51 AM55 °FOvercast.20 mph83%29.74 "Hg10 mi
11:51 PM
Dec 21
55 °FOvercast.16 mph83%29.76 "Hg10 mi
Weather by CustomWeather, © 2014

See weather overviewHow to use our weather pages